Regional Weather Roundup
Issued by NWS

Home | Current Version | Previous Version | Graphics & Text | Print | Product List | Glossary On
Versions: 1 2 3 4 5 6 7 8 9 10 11 12 13 14 15 16 17 18 19 20 21 22 23 24 25 26 27 28 29 30 31 32 33 34 35 36 37 38 39 40 41 42 43 44 45 46 47 48 49 50
545
ASUS43 KDMX 110401
RWRIA

WEATHER ROUNDUP FOR IOWA
NATIONAL WEATHER SERVICE DES MOINES IA
1000 PM CST SAT DEC 10 2016

NOTE: "FAIR" INDICATES FEW OR NO CLOUDS BELOW 12,000 FEET WITH NO
SIGNIFICANT WEATHER AND/OR OBSTRUCTIONS TO VISIBILITY.

* - THESE STATIONS ARE NOT NWS STATIONS...THUS NOT UNDER NWS
QUALITY CONTROL.  THEY ALSO DO NOT REPORT WEATHER SUCH
AS PRECIPITATION OR FOG.

IAZ001>003-012>014-020>022-031>034-043>046-110500-
   NORTHWEST IOWA

CITY           SKY/WX    TMP DP  RH WIND       PRES   REMARKS
CARROLL *      CLOUDY    25  21  86 SE14      30.00F WCI  13
CHEROKEE *     LGT SNOW  22  21  95 SE10G16   29.99F WCI  12
DENISON *      CLOUDY    25  21  86 E9        29.95F WCI  15
LE MARS *      CLOUDY    25  21  86 E13G21    29.95F WCI  13
ORANGE CITY *  LGT SNOW  21  19  93 SE10G16   29.95F WCI  10
SHELDON *      LGT SNOW  21  21 100 SE16      29.96F WCI   7
SIOUX CITY     CLOUDY    28  20  71 SE15      29.94F WCI  16
SPENCER        LGT SNOW  21  18  88 SE9       30.00F FOG     WCI  11
STORM LAKE *   LGT SNOW  21  19  93 SE14      29.98F VSB 1   WCI   8
$$

IAZ055>058-069>071-079>083-090>094-110500-
   SOUTHWEST IOWA

CITY           SKY/WX    TMP DP  RH WIND       PRES   REMARKS
ATLANTIC *     CLOUDY    30  21  69 SE7G13    29.98F WCI  23
AUDUBON *      PTCLDY    27  21  80 SE6       29.98F WCI  20
CLARINDA *     MOCLDY    32  19  59 SE9       30.00F WCI  24
COUNCIL BLFS * CLOUDY    28  21  74 SE14      29.93F WCI  17
CRESTON *      CLOUDY    30  19  64 SE14      30.00F WCI  20
HARLAN  *      CLOUDY    28  23  80 SE9       29.99F WCI  20
LAMONI         CLOUDY    31  18  58 SE13      30.01F WCI  21
RED OAK *      CLOUDY    32  19  59 SE12      29.98F WCI  23
SHENANDOAH *   MOCLDY    32  21  64 SE13      29.97S WCI  22
$$

IAZ047>049-059>061-072>074-084-110500-
   CENTRAL IOWA

CITY           SKY/WX    TMP DP  RH WIND       PRES   REMARKS
AMES           CLOUDY    23  21  92 E9        30.07S WCI  13
ANKENY *       CLOUDY    25  19  80 E7        30.07F WCI  17
BOONE *        CLOUDY    23  19  86 SE15      30.03F WCI  10
CHARITON *     CLOUDY    28  19  69 SE12      30.04F WCI  18
DES MOINES     CLOUDY    27  19  72 E7        30.05F WCI  19
GRINNELL*      CLOUDY    23  20  89 E10       30.09S WCI  12
KNOXVILLE *    CLOUDY    28  18  64 SE10      30.04F WCI  19
MARSHALLTOWN   LGT SNOW  22  20  92 SE14      30.09F FOG     WCI   9
NEWTON *       CLOUDY    23  19  86 SE13      30.06F WCI  11
PELLA *        CLOUDY    26  20  79 SE9       30.08F WCI  17
PERRY *        CLOUDY    25  22  88 E9        30.03F WCI  16
$$

IAZ004>006-015-016-023>025-035-036-110500-
   NORTH CENTRAL IOWA

CITY           SKY/WX    TMP DP  RH WIND       PRES   REMARKS
ALGONA *       LGT SNOW  21  19  93 SE13      30.03F VSB 1   WCI   9
CLARION *      FOG       21  21 100 SE14      30.06F VSB 3/4 WCI   8
ESTHERVILLE    LGT SNOW  19  18  95 E14       30.03F VSB 1   WCI   6
FORT DODGE *   CLOUDY    21  18  86 SE10      30.05F WCI  10
MASON CITY     LGT SNOW  20  17  88 SE12      30.11S FOG     WCI   8
WEBSTER CITY * LGT SNOW  23  21  93 SE15      30.04F WCI  10
IOWA FALLS *   LGT SNOW  23  20  90 SE14      30.09F WCI  10
$$

IAZ007>011-017>019-026>030-037>042-050>054-066-110500-
   NORTHEAST IOWA

CITY           SKY/WX    TMP DP  RH WIND       PRES   REMARKS
CEDAR RAPIDS   FLURRIES  22  21  96 SE12      30.13F WCI  10
CHARLES CITY * LGT SNOW  21  19  93 SE14      30.13S WCI   8
CLINTON *      FLURRIES  23  20  88 SE14      30.21F WCI  11
DECORAH *      LGT SNOW  18  16  93 VRB7      30.15S WCI   8
DUBUQUE        LGT SNOW  20  18  92 SE9       30.18F FOG     WCI   9
MONTICELLO *   MIX PCPN  23  19  86 SE15      30.17F WCI  10
OELWEIN *      FLURRIES  21  19  93 SE16      30.14F WCI   7
WATERLOO       LGT SNOW  22  18  85 SE14      30.13F FOG     WCI   9
$$

IAZ064-065-067-068-078-110500-
   EAST CENTRAL IOWA

CITY           SKY/WX    TMP DP  RH WIND       PRES   REMARKS
DAVENPORT      CLOUDY    23  19  85 SE14      30.19F WCI  11
IOWA CITY      CLOUDY    25  19  78 SE12      30.16F WCI  14
MUSCATINE *    MOCLDY    27  19  74 SE9       30.17F WCI  17
QUAD CITIES    CLOUDY    25  19  78 SE13      30.19F WCI  14
$$

IAZ062-063-075>077-085>089-095>099-110500-
   SOUTHEAST IOWA

CITY           SKY/WX    TMP DP  RH WIND       PRES   REMARKS
BURLINGTON     CLOUDY    29  20  69 SE10      30.15F WCI  20
FAIRFIELD *    CLOUDY    28  18  64 SE12      30.10F WCI  18
FORT MADISON * CLOUDY    28  19  69 SE12      30.14F WCI  18
KEOKUK *       CLOUDY    30  19  64 SE8G14    30.13F WCI  23
OSKALOOSA *    CLOUDY    26  21  80 SE12      30.09F WCI  16
CENTERVILLE *  CLOUDY    28  18  64 SE12      30.07F WCI  18
OTTUMWA        CLOUDY    28  18  66 SE12      30.08F WCI  18
WASHINGTON *   MOCLDY    25  21  86 SE12      30.14F WCI  14
$$

ABBREVIATIONS USED IN REMARKS
   TC - TEMPERATURES IN CELSIUS
  WCI - WIND CHILL INDEX
   HX - HEAT INDEX
  VSB - VISIBILITY
$$





USA.gov is the U.S. government's official web portal to all federal, state and local government web resources and services.